Hourly Data Report for October 06, 2017

All times are specified in Local Standard Time (LST). Add 1 hour to adjust for Daylight Saving Time where and when it is observed.

THOMPSON A
MANITOBA

55°48'17.000" N
97°51'45.000" W
224.00 m
5062921
71079
YTH

Download Data

Hourly Data (October 2017)
Hourly Data Report for October 6, 2017
Temp Definition
°C
Dew Point Temp Definition
°C
Rel Hum Definition
%
Wind Dir Definition
10's deg

Wind Spd Definition
km/h
Visibility Definition
km
Stn Press Definition
kPa
Hmdx Definition


Wind Chill Definition


Weather Definition


TIME
00:00 Legend Double Dagger -0.6 -1.2 96 36 2 24.1 97.89   -1 Mainly Clear
01:00 Legend Double Dagger 0.7 0.1 96 15 3 24.1 97.81     LegendNANA
02:00 Legend Double Dagger 2.8 1.5 91 17 4 24.1 97.73     LegendNANA
03:00 Legend Double Dagger 3.4 2.0 90 18 5 24.1 97.63     Mostly Cloudy
04:00 Legend Double Dagger 3.9 3.0 94 36 3 24.1 97.58     Rain
05:00 Legend Double Dagger 4.9 4.0 94 36 3 24.1 97.40     LegendNANA
06:00 Legend Double Dagger 5.2 4.6 96 16 5 24.1 97.31     Mostly Cloudy
07:00 Legend Double Dagger 5.2 4.6 96 15 4 24.1 97.19     LegendNANA
08:00 Legend Double Dagger 6.9 5.0 88 21 12 24.1 97.12     LegendNANA
09:00 Legend Double Dagger 7.8 4.9 82 22 13 24.1 97.02     Mostly Cloudy
10:00 Legend Double Dagger 9.9 4.5 69 22 21 24.1 96.95     LegendNANA
11:00 Legend Double Dagger 10.8 4.6 66 22 14 24.1 96.90     LegendNANA
12:00 Legend Double Dagger 13.2 5.5 59 22 12 24.1 96.86     Mostly Cloudy
13:00 Legend Double Dagger 14.7 5.2 52 22 15 24.1 96.77     LegendNANA
14:00 Legend Double Dagger 15.6 5.3 50 21 18 24.1 96.69     LegendNANA
15:00 Legend Double Dagger 16.6 5.4 47 20 15 24.1 96.60     Mostly Cloudy
16:00 Legend Double Dagger 16.3 5.3 48 21 12 24.1 96.55     LegendNANA
17:00 Legend Double Dagger 15.2 5.9 53 19 10 24.1 96.50     LegendNANA
18:00 Legend Double Dagger 13.8 5.6 57 20 8 24.1 96.46     Mostly Cloudy
19:00 Legend Double Dagger 12.7 5.3 60 21 8 24.1 96.43     LegendNANA
20:00 Legend Double Dagger 12.8 5.2 60 20 9 24.1 96.38     LegendNANA
21:00 Legend Double Dagger 11.8 5.3 64 19 6 24.1 96.32     Mostly Cloudy
22:00 Legend Double Dagger 10.6 4.9 68 17 5 24.1 96.27     LegendNANA
23:00 Legend Double Dagger 12.1 4.3 59 22 6 24.1 96.20     Rain

Notes on Data Quality.

Legend

  • E = Estimated
  • M = Missing
  • NA = Not Available
  • ‡ = Partner data that is not subject to review by the National Climate Archives
Date modified: